Showing default

DSAT, 42794

Orbit data source: Space-Track

DSAT, 42794 is a payload satellite owned by D-ORBIT (IT) in SSO that was launched on Fri, 23 Jun 2017 UTC via a PSLV-XL launch vehicle from the Sirharikota (SRI). Payload-class satellites include a variety of spacecraft equipped with specific instruments for various scientific and technological missions. These include communications satellites like Starlink; space stations such as the ISS; scientific satellites like the Hubble; Earth observation satellites from companies like Planet Labs, Umbra, and HawkEye 360; GPS; miniature CubeSats for education and research; and military/defense satellites.

Loading next visibility...
Identifier
42794, 2017-036AF
Orbit
SSO
Last TLE update
5 hours ago
Origin
Manufacturer
D-ORBIT
Mission
Non-operational Commercial Technology
Bus & Motor
CUBESAT 3U, Unknown motor
Mass
4.5 kg wet, 4.2 kg dry
Launch date (UTC)
2017-06-23 (8 years ago)
Launch vehicle
PSLV-XL
Launch site
Sirharikota (SRI)
Object type
Payload
Rocket body
Debris
Shape & HBR
Box, 0.3 m
Radar Cross Section
0.035 m², Small (<0.1 m²)

Expand to show TLE details & history

TLE from 5 hours ago
0 DSAT
1 42794U 17036AF  25192.17329237  .00002403  00000-0  13611-3 0  9990
2 42794  97.5154 169.4975 0090959 259.0267 100.0720 15.10545473439295
Epoch: 2025-07-11T04:09Z
TLE epoch observation values (Epoch: 2025-07-11T04:09:32.46Z)
Latitude
-0.00005°
Longitude
177.78324°
Altitude
549.162 km
Speed
7.581 km/s
True Right ascension
11h 17m 59s
True Declination
0° 00' 00"
Sunlit
Object was in daylight at epoch
Visualization orbit readout
Latitude
17.76524°
Longitude
0.41722°
Altitude
543.219 km
Speed
7.589 km/s
Apparent Right ascension
02h 18m 30s
Apparent Declination
-34° 56' 16"
Sunlit
Object is in daylight
Visualization observer readout
Local Sidereal Time
21:56:54
Azimuth
131.447° SE
Elevation
-6.07°
Doppler factor
1
Orbital elements
Apogee altitude
594.368 km
Perigee altitude
468.669 km
Semi-major axis
6,909.655 km
Eccentricity
0.0091
Inclination
97.5154°
RAAN
169.4975°
Arg. of periapsis
259.0267°
True anomaly
Unknown
Mean anomaly
100.072°
Eccentric anomaly
Unknown
Mean motion
3.77884 °/min
Orbital period
95.27 mins
BSTAR
0.00013611
Loading maneuver chart data...
Loading SW <> Apogee altitude chart data...
Loading historical data...
Loading historical data...
Loading historical data...
Loading historical data...
Loading historical data...
Loading historical data...
Loading historical data...

DSAT Visibility forecast

Observer location: undefined°, undefined°

Span
Click to sort rows by Start time (UTC) header in descending order
Start Az.
Max El. time (UTC)
Max El. Az.
Max El.
End time (UTC)
End Az.
7 mins2025-07-11 11:05:10.066Z22.914° NE2025-07-11 11:09:10.066Z124.108° SE37.836°2025-07-11 11:12:10.066Z175.989° S
5 mins2025-07-11 21:48:10.066Z112.733° SE2025-07-11 21:50:10.066Z72.133° E23.94°2025-07-11 21:53:10.066Z17.686° NNE
4 mins2025-07-11 23:23:10.066Z234.765° WSW2025-07-11 23:24:10.066Z255.149° W21.524°2025-07-11 23:27:10.066Z311.675° NW
|